Temp
15 17 18 18 18 18 18 18 18 18 19 19 19 19 19 20 21 21 22 22 22 22 22 23 24 26 28 26 27 29 21 21 24 28 27 27 27 29 31 30 31 31 31 30 33
17 18 18 18 18 18 18 18 18 18 19 19 19 19 19 20 20 21 23 23 23 23 24 23 23 27 24 26 26 24 21 23 26 27 26 27 26 27 28 28 29 29 31 33 31
18 19 18 18 18 18 18 18 19 19 18 19 19 20 20 20 19 23 24 24 24 23 22 22 23 25 25 25 26 26 23 26 27 27 27 26 27 28 27 26 28 28 29 30 30
19 19 19 19 19 19 19 19 19 19 19 19 19 20 21 21 22 23 24 24 24 23 22 23 25 24 24 24 26 27 27 27 27 27 26 26 26 27 27 26 28 28 28 29 29
19 19 19 19 19 19 19 19 19 20 19 19 20 20 21 21 23 24 25 25 25 24 24 26 24 23 22 23 24 25 25 26 26 25 25 26 26 26 26 27 28 28 29 28 28
18 19 20 19 20 20 19 19 20 20 20 20 20 20 19 21 26 26 26 25 24 27 27 26 24 24 23 23 23 25 25 25 25 25 25 26 26 27 27 27 28 28 27 29 28
18 19 20 20 20 20 20 20 21 21 21 20 20 19 21 20 27 27 26 27 27 27 26 27 26 24 23 23 24 24 24 24 26 25 25 26 26 26 27 28 28 29 28 28 27
19 19 20 20 20 20 20 21 21 22 22 21 20 19 20 27 27 27 27 28 28 27 27 27 27 24 23 23 24 24 23 22 25 27 28 26 23 26 28 28 28 28 28 27 26
18 19 20 20 21 21 21 21 21 22 22 21 20 20 22 27 27 28 28 28 27 27 28 28 27 23 23 22 21 24 22 23 24 26 26 26 23 27 27 27 26 26 26 26 25
18 19 20 21 21 21 21 21 21 22 22 21 20 21 24 27 28 27 27 28 27 27 26 25 23 22 21 21 20 22 22 22 22 25 25 24 24 26 26 27 25 25 25 25 25
18 19 20 21 21 22 22 21 20 19 20 23 25 25 29 28 28 28 28 28 27 26 23 25 22 21 24 24 25 24 23 22 24 25 24 23 23 24 25 24 25 24 24 25 25
18 19 21 22 21 21 21 19 26 25 22 26 27 27 28 28 27 29 28 26 25 23 24 23 22 25 27 26 25 24 22 22 24 25 24 23 23 24 26 26 26 26 24 24 25
18 19 20 22 22 22 22 23 26 26 22 25 28 28 29 28 27 27 29 27 25 23 24 23 24 27 27 25 24 24 23 23 22 24 23 23 22 23 25 26 26 27 25 25 25
18 19 19 22 21 23 23 26 26 25 19 26 27 28 29 27 26 29 28 26 25 24 24 24 26 26 25 25 25 22 24 24 23 22 20 24 21 22 23 23 24 24 23 25 26
18 19 20 18 21 21 26 26 25 24 19 27 28 28 29 27 28 28 28 26 24 24 24 23 24 24 24 25 24 22 24 23 23 22 21 23 20 23 21 22 23 24 26 25 25
19 20 19 20 20 24 25 26 25 20 19 27 28 27 26 27 28 28 27 26 26 24 24 24 26 25 25 26 25 25 23 22 22 21 19 22 22 20 20 20 23 25 26 25 26
19 21 19 19 21 24 25 24 20 19 29 27 27 28 26 26 26 27 26 24 22 21 21 24 24 26 26 25 24 23 20 16 17 17 18 22 21 20 22 22 22 23 24 25 25
19 21 22 22 23 23 24 20 20 25 27 27 26 25 24 26 27 26 25 22 24 24 22 21 20 25 25 24 22 22 21 17 18 17 19 21 19 21 21 21 21 22 21 20 18
19 20 20 23 23 23 19 18 21 25 27 25 25 24 24 26 26 25 24 24 25 24 22 20 22 24 24 25 23 22 19 20 19 19 17 19 22 22 22 23 22 21 23 21 20
14 16 21 24 24 23 19 19 22 24 26 25 23 24 22 23 22 22 23 25 25 26 23 22 19 23 24 24 23 21 22 18 17 17 17 19 20 20 22 21 22 23 23 23 22
14 17 24 24 24 19 18 20 23 27 25 23 22 21 21 21 22 21 22 24 24 23 21 20 19 20 20 21 20 21 19 21 19 19 16 16 17 22 21 21 22 22 21 21 22
12 17 24 24 19 18 19 22 23 25 25 24 23 21 20 21 20 21 21 22 24 23 21 21 18 17 18 21 22 22 21 20 13 17 16 17 19 21 22 21 22 21 22 21 22
10 15 23 23 19 19 21 23 23 23 23 24 23 22 20 19 18 20 21 23 23 22 21 20 16 13 16 17 20 20 21 20 18 17 16 16 18 22 23 23 23 22 22 20 22
11 16 18 18 19 18 17 19 21 23 22 23 22 22 20 19 19 18 20 22 22 22 21 19 16 16 15 16 17 17 19 19 18 15 18 19 20 21 21 22 23 21 20 20 19
13 16 17 16 17 16 17 18 19 20 22 22 22 21 19 18 18 18 19 19 20 20 19 17 15 16 17 18 18 19 19 19 19 19 18 19 19 20 21 22 22 19 19 19 19
13 13 14 14 15 16 17 17 18 20 21 21 19 20 19 17 17 16 17 17 16 17 16 16 15 16 16 18 18 18 19 19 19 19 19 19 19 21 21 21 21 20 21 19 18
11 12 12 13 14 15 16 17 18 18 20 20 20 18 17 18 18 17 16 15 15 15 15 14 14 13 13 16 16 14 17 17 18 19 19 18 19 20 19 18 18 18 18 17 17
Height
805 804 803 802 801 799 798 796 795 794 793 791 790 788 786 784 783 781 779 778 776 775 773 770 766 763 763 762 759 757 798 805 788 774 769 751 757 741 733 739 736 736 739 734 736
806 805 804 803 802 800 799 797 796 795 793 792 791 788 787 785 784 782 779 776 775 774 771 769 768 762 767 763 761 774 799 788 767 763 764 756 758 754 752 750 747 741 736 734 735
808 807 806 804 803 801 800 798 796 795 794 793 791 789 788 786 785 781 778 776 775 775 773 771 767 764 768 761 762 764 787 767 760 755 752 755 756 749 754 762 751 750 742 737 736
810 808 807 805 803 802 800 798 797 795 793 792 791 789 787 787 796 780 778 776 774 773 772 767 761 767 773 775 758 768 758 758 758 751 754 758 751 755 753 753 743 739 738 737 738
812 810 807 805 803 802 800 798 796 795 794 792 791 789 787 787 782 777 777 775 773 772 770 767 771 773 783 774 766 766 764 757 754 754 754 752 756 754 751 741 737 736 736 738 737
814 811 808 806 803 801 799 797 795 794 794 792 792 790 789 792 774 773 774 772 772 772 770 768 772 770 774 774 775 764 763 760 754 755 753 756 753 748 745 736 735 734 735 734 736
816 811 809 807 804 801 798 795 794 793 793 792 791 791 789 786 772 772 771 770 769 770 770 769 769 773 772 776 762 764 774 762 752 746 752 745 758 754 738 732 732 733 733 734 735
816 812 809 806 804 801 798 795 793 792 792 792 791 792 788 772 770 769 769 769 767 767 767 766 766 768 770 763 762 771 772 786 753 742 743 748 774 745 730 731 733 731 732 732 733
817 812 809 806 803 801 798 796 794 792 791 791 791 791 786 769 770 768 768 767 767 767 764 763 763 769 768 778 786 771 789 779 767 747 748 750 764 739 729 730 733 730 729 729 728
817 812 808 805 802 799 797 795 792 791 790 789 790 797 776 769 766 767 766 766 765 764 763 761 769 779 777 787 807 792 789 781 780 758 750 754 751 737 730 728 729 728 725 724 724
816 811 806 803 801 797 795 793 793 794 790 786 778 776 764 765 765 763 763 763 761 765 779 763 782 790 773 769 768 774 779 780 764 750 757 760 754 743 732 729 728 726 723 721 719
816 809 804 801 799 797 796 795 787 787 786 772 768 765 763 763 768 758 761 767 770 782 768 775 784 764 756 759 766 772 778 775 758 748 752 756 753 739 728 724 720 717 719 717 714
815 808 802 798 795 794 793 790 785 782 791 768 758 761 759 761 765 762 757 763 773 778 774 780 769 751 756 764 768 768 773 772 772 756 753 754 755 744 723 715 707 700 706 707 711
813 807 801 797 797 793 790 787 785 783 807 773 763 759 757 757 765 752 754 764 772 778 770 771 754 759 762 766 762 780 761 761 764 768 780 748 773 744 731 727 718 707 713 707 706
811 806 800 798 796 793 788 785 785 785 829 761 758 753 753 763 756 754 751 759 775 773 773 778 768 767 766 759 758 772 757 760 759 764 769 746 771 739 737 735 728 721 708 707 705
808 804 799 797 795 790 787 785 785 812 823 763 753 759 762 756 754 750 753 751 752 764 761 762 747 751 751 748 752 753 759 761 756 761 786 755 758 760 752 741 724 713 709 709 707
805 800 796 796 792 789 788 786 815 821 752 766 762 756 762 766 760 754 761 769 780 786 783 763 758 744 743 756 753 759 779 804 798 794 789 750 761 754 735 729 728 720 716 708 705
802 795 792 790 789 789 789 803 822 779 767 757 763 765 773 760 757 758 764 776 759 760 771 780 793 749 747 756 766 763 771 803 801 804 781 757 770 747 732 725 721 720 720 717 717
798 792 790 786 787 789 797 820 803 773 761 769 767 773 772 760 759 762 765 766 753 754 776 785 776 748 749 748 755 763 781 764 781 773 789 770 744 735 727 723 720 720 715 718 719
802 794 784 781 786 788 804 809 789 768 763 768 785 775 787 777 777 775 771 755 755 748 750 763 784 759 754 748 747 757 752 783 784 794 793 764 757 753 732 729 721 718 713 711 710
806 799 781 782 783 792 810 794 776 760 764 776 780 786 785 785 780 780 773 761 751 755 757 765 773 773 765 765 766 760 764 756 761 765 790 782 763 725 729 723 721 717 713 708 704
817 810 781 781 795 791 794 780 767 764 758 764 768 776 782 779 781 780 777 767 753 756 768 765 777 782 773 754 744 746 751 755 791 775 771 760 740 718 713 716 710 709 703 702 699
826 806 777 778 800 793 778 775 770 770 765 763 767 769 772 781 787 772 769 756 754 758 764 765 784 800 778 764 745 750 747 751 755 758 770 773 738 709 709 707 700 697 696 697 695
830 811 788 784 780 791 795 785 780 766 766 763 764 763 773 778 773 776 767 757 754 754 755 758 774 782 785 774 767 770 753 747 754 767 752 743 722 717 711 704 694 694 696 695 696
826 810 806 807 795 799 797 791 786 778 766 760 762 763 770 779 774 773 766 763 757 755 759 766 775 768 759 757 755 751 748 743 744 738 748 725 726 717 708 697 694 696 694 694 695
828 825 818 814 804 796 792 788 783 774 769 766 769 764 765 774 773 775 769 770 770 762 767 765 769 764 752 751 747 745 737 730 729 729 727 723 714 702 697 690 690 690 687 688 690
834 830 824 813 807 804 796 787 780 776 766 761 761 767 769 766 760 761 761 762 762 765 766 769 769 777 756 758 755 749 731 727 722 721 721 720 707 695 698 698 696 691 688 689 688
Wind_Speed
11 8 7 7 8 10 10 10 9 9 9 10 12 13 13 14 14 12 4 6 7 9 14 19 17 18 15 5 6 2 4 5 6 4 8 8 9 10 5 5 5 3 4 11 18
12 9 8 8 8 9 10 10 9 9 9 10 12 15 15 16 17 8 7 6 4 7 14 13 9 7 4 6 4 4 3 8 5 7 6 6 9 9 8 8 5 7 7 12 13
14 10 9 9 9 10 11 11 10 10 11 12 12 13 14 12 4 2 6 3 3 6 14 19 26 10 7 6 7 6 7 7 8 7 7 8 7 7 8 7 7 6 7 6 8
16 11 9 9 10 12 12 12 11 10 11 12 13 15 14 5 3 3 3 6 9 12 16 15 8 7 5 7 7 1 6 5 9 8 7 8 10 7 7 8 9 10 8 5 5
18 14 11 11 12 13 14 13 12 9 10 11 13 16 8 4 5 4 4 7 12 16 14 5 9 8 7 7 10 7 7 8 8 9 8 8 8 10 8 10 10 10 9 8 6
23 15 12 12 13 15 16 15 11 8 8 10 12 14 3 6 1 4 4 12 17 12 13 13 6 8 6 7 6 6 8 10 9 11 9 9 11 5 10 10 10 10 10 5 5
29 20 14 12 13 15 16 12 8 6 6 9 11 11 5 10 4 6 10 11 6 3 3 4 7 6 8 8 9 9 9 11 16 12 11 12 6 7 14 13 8 1 2 4 7
29 24 16 14 14 15 15 11 8 7 8 10 12 4 6 7 4 7 13 9 11 8 6 6 7 6 5 9 9 9 6 5 11 7 5 7 7 12 8 3 6 7 6 7 7
30 28 19 15 15 15 15 11 9 10 10 10 8 2 8 11 4 5 4 5 8 11 14 12 6 7 9 6 7 3 3 8 9 10 8 3 9 7 7 9 8 9 9 10 9
32 30 22 14 15 17 15 15 11 13 9 8 10 6 7 3 7 6 10 6 7 7 9 7 5 6 6 2 4 7 9 9 9 11 13 13 14 13 10 6 8 9 9 9 9
32 31 26 16 13 18 21 9 4 2 4 7 10 7 6 7 7 9 7 7 10 6 7 7 2 7 4 6 5 6 8 10 14 13 6 7 10 12 14 10 11 9 9 8 8
36 34 27 15 14 16 17 3 4 10 9 13 17 18 10 4 7 7 5 3 5 8 10 7 6 6 3 4 6 8 11 12 7 9 12 13 18 17 20 18 18 17 9 10 6
39 38 28 15 14 14 11 14 15 9 3 12 11 10 5 7 8 7 1 4 6 8 9 5 10 13 4 7 8 7 7 8 11 13 11 12 12 8 18 14 14 20 8 7 9
40 38 27 14 9 9 10 8 11 9 2 5 7 4 5 7 10 6 6 3 4 7 6 6 7 13 7 9 5 5 11 12 14 11 10 2 16 9 10 8 16 10 7 7 7
42 37 23 10 13 8 9 9 14 1 3 10 6 8 4 5 6 2 14 5 8 9 7 8 13 13 12 3 5 6 11 12 14 14 10 22 4 10 6 5 11 9 2 5 6
44 34 22 4 9 12 15 13 8 1 5 8 8 8 10 8 5 9 7 8 7 9 10 13 12 14 10 4 2 11 8 9 12 8 2 12 6 3 1 6 6 6 7 7 4
44 35 15 11 5 11 12 8 2 3 3 5 2 4 8 8 11 0 4 5 5 7 7 6 10 10 5 2 5 6 6 5 5 4 5 17 9 7 4 7 9 9 6 5 4
45 30 8 11 7 12 9 3 4 9 9 7 8 8 7 12 3 3 4 8 9 8 3 1 8 4 9 3 5 4 4 4 4 3 11 9 6 3 4 3 6 8 9 13 9
44 26 9 10 4 2 3 2 5 3 9 5 9 5 8 11 1 3 5 7 5 4 1 3 5 12 13 11 6 3 3 8 6 6 4 5 4 3 4 3 2 4 2 7 4
32 12 10 12 10 3 2 6 7 11 5 6 3 3 7 10 11 11 7 9 6 7 7 4 9 7 13 12 11 7 7 3 3 4 5 5 9 9 6 6 6 3 2 3 2
10 4 3 7 9 2 3 6 14 6 5 1 3 5 8 11 9 10 6 14 8 8 9 6 2 4 10 4 11 9 5 5 5 4 4 6 5 4 11 5 3 6 9 8 6
13 4 12 2 1 3 5 7 12 12 4 2 5 7 8 8 7 10 13 8 9 3 3 4 3 7 13 16 18 16 14 8 3 7 5 8 15 9 18 7 14 13 12 4 1
6 4 11 11 3 4 6 10 14 12 9 2 2 5 8 8 5 5 9 11 14 8 2 3 3 5 7 7 3 3 7 5 4 3 9 11 13 9 16 23 19 17 2 3 1
4 4 4 3 2 7 9 6 10 10 13 14 7 6 5 7 7 8 9 6 14 13 14 6 7 9 14 11 8 18 25 22 14 6 14 16 23 16 14 19 19 3 5 4 3
3 3 4 5 6 14 7 8 18 18 14 11 4 7 8 6 7 7 11 14 11 12 5 3 6 9 15 19 21 22 22 23 23 18 17 23 23 22 18 8 3 6 6 6 4
3 4 6 10 11 11 8 7 15 18 15 7 7 9 8 7 7 11 10 4 5 6 8 3 10 10 23 15 18 22 25 25 20 21 22 25 28 15 8 7 3 4 2 4 6
11 11 5 4 8 11 10 15 18 18 8 15 8 7 8 11 9 7 6 5 7 9 13 9 11 4 26 9 17 18 21 19 22 21 19 20 10 12 5 6 6 6 5 5 4
Wind_Direction
19 34 33 29 24 18 14 8 0 355 350 349 342 332 324 324 328 323 324 321 320 318 314 314 297 288 229 260 262 40 22 273 266 342 292 359 12 355 23 41 14 27 319 288 317
30 36 33 25 17 10 6 2 355 347 338 340 335 331 327 322 323 301 347 339 325 314 331 331 325 331 309 256 248 134 139 249 268 328 327 4 12 335 9 346 343 332 304 302 20
31 32 24 15 6 2 359 354 349 340 332 334 337 337 337 335 292 85 30 13 12 311 301 294 282 254 258 274 228 217 202 271 313 313 356 340 351 326 330 319 292 265 303 333 11
23 22 14 4 355 349 347 343 339 334 329 332 337 342 339 344 9 166 34 344 323 310 303 284 324 14 344 327 319 21 326 306 290 314 360 323 313 307 288 267 282 295 288 288 316
14 11 5 356 348 343 339 335 330 325 325 327 336 342 347 270 240 150 337 303 301 288 272 312 23 2 358 300 337 348 317 315 318 333 315 299 285 267 276 277 275 275 277 287 274
12 4 358 352 345 340 336 329 321 315 317 319 332 343 333 287 216 198 297 287 253 345 342 23 2 325 276 327 333 281 308 311 292 271 261 258 261 274 279 264 266 244 234 250 267
12 1 351 345 342 339 337 329 313 297 300 306 323 346 276 245 256 246 253 264 239 255 295 355 347 2 313 294 262 303 303 292 271 243 236 234 270 271 263 275 238 24 319 291 236
9 2 347 340 337 338 341 326 305 283 284 298 312 338 256 239 307 253 266 277 328 257 280 278 261 270 230 260 293 261 269 268 303 34 279 145 247 246 262 282 184 205 245 251 254
4 2 348 335 330 332 338 328 300 288 283 293 309 202 274 199 237 333 294 311 354 307 291 284 241 231 289 271 306 27 298 329 323 340 325 323 267 287 276 259 258 209 208 221 222
0 357 350 332 320 319 327 318 290 284 294 277 263 311 262 263 14 295 261 327 281 252 285 235 227 239 268 225 287 331 336 323 303 308 311 297 281 283 274 281 272 242 224 222 219
358 353 348 329 316 308 318 331 326 307 238 224 267 235 299 16 313 260 228 282 249 239 265 274 137 246 294 34 351 323 300 285 284 282 324 322 319 316 304 299 284 272 259 243 245
356 349 343 327 308 310 304 249 7 267 298 270 260 254 273 194 270 278 143 335 353 296 295 318 238 199 42 320 287 267 268 275 279 335 336 324 305 292 280 273 264 256 237 231 214
353 349 340 325 303 300 265 267 330 349 305 289 255 213 268 179 266 297 122 336 312 293 292 320 279 291 3 315 293 289 290 333 325 323 300 288 286 292 295 289 315 236 199 211 193
351 350 341 327 309 309 280 285 1 9 314 250 175 218 216 197 243 208 122 73 308 290 319 291 267 339 328 284 348 346 338 325 302 295 291 296 295 279 293 340 1 6 317 177 159
348 349 337 312 307 316 310 8 349 343 316 142 179 140 200 226 259 146 155 168 244 277 301 254 293 293 275 269 51 275 279 267 278 286 296 291 221 297 54 327 321 297 118 171 175
343 346 328 317 283 296 314 334 308 337 251 165 145 197 207 235 320 294 182 198 221 241 249 253 265 255 265 59 353 274 292 315 284 266 234 42 8 296 208 225 238 240 13 6 6
339 340 301 269 241 331 345 326 344 220 228 114 83 15 347 309 286 293 290 338 265 283 288 309 305 276 128 181 265 308 357 324 341 354 244 349 332 232 46 33 0 22 355 331 0
337 338 301 252 254 321 346 6 249 276 310 26 11 320 279 268 209 283 235 253 269 265 230 264 309 329 25 15 286 302 173 185 279 299 299 316 250 276 190 113 70 14 9 41 54
336 340 274 231 221 287 55 269 242 264 336 12 331 337 320 352 226 246 291 288 288 91 101 359 252 315 330 329 326 293 302 237 258 264 319 246 276 249 211 64 196 167 327 28 78
334 318 268 237 186 117 106 242 280 287 353 24 348 319 294 325 342 339 325 301 336 326 137 219 293 274 303 312 293 182 217 305 300 304 257 253 304 268 275 18 40 37 258 237 281
329 311 167 149 168 108 212 247 283 313 86 53 336 331 318 313 311 303 290 315 4 10 23 13 265 300 338 279 283 292 298 273 212 177 224 282 244 299 312 337 327 282 265 247 210
335 310 153 186 67 230 229 261 320 336 336 194 175 235 258 284 302 307 303 286 348 60 325 351 272 283 263 283 279 269 272 262 183 268 237 255 271 270 268 260 308 294 278 213 50
309 266 293 225 241 285 303 324 329 309 327 73 282 347 325 306 315 266 292 308 310 304 241 167 281 324 304 304 333 43 337 310 263 8 261 264 267 321 296 290 278 271 130 144 186
290 297 336 354 317 25 359 318 314 321 311 305 253 226 284 278 269 260 258 288 317 318 326 169 193 213 255 251 283 285 296 296 286 241 275 260 286 294 296 294 299 68 114 54 57
237 296 2 313 325 323 312 290 294 297 293 291 288 220 239 266 291 292 314 315 307 307 324 185 243 246 260 270 265 266 268 265 273 276 279 292 291 295 295 316 275 147 95 65 20
310 349 342 302 291 309 315 307 301 296 289 299 328 312 312 288 272 297 299 313 252 307 303 274 277 279 274 276 280 285 271 268 271 278 277 281 281 280 291 270 46 73 156 214 251
355 331 309 280 294 290 281 286 303 318 311 324 326 327 310 295 301 300 288 266 255 268 264 257 275 299 275 300 300 279 251 261 265 261 262 274 281 277 322 21 0 347 356 93 76